Location: Bouchavesnes-Bergen
(49.9859°N, 2.9203°E)
Time: 00:45:40
(UTC+00:00)

IDEFIX/ARIANE 42P - Pass Details

Date: 01 October 2022
Orbit: 784 x 803 km, 98.5° (Epoch: 05 December)

Event Time Altitude Azimuth Distance (km) Brightness Sun altitude
Rises 02:15:03 0° 13° (NNE) 3,329 6.5 -32.6°
Reaches altitude 10° 02:17:24 10° 13° (NNE) 2,394 5.6 -32.3°
Enters shadow 02:21:00 45° 9° (N) 1,094 3.5 -31.9°
